DW4238 Weather Reports


Display with metric or nautical units.
time (UTC)temp
F
wind
direction
speed
MPH
gust
MPH
rain 1hr
in
rain 24hr
in
rain mn
in
humidity
%
barometer
mb
20260507191604 71 52 8.0 15.0 0.00 0.00 0.00 69 1014.6
20260507191053 70 48 9.0 15.0 0.00 0.00 0.00 70 1014.5
20260507190553 70 344 6.0 15.0 0.00 0.00 0.00 71 1014.6
20260507190023 71 21 7.0 14.0 0.00 0.00 0.00 71 1014.8
20260507185527 71 351 6.0 14.0 0.00 0.00 0.00 70 1015.0
20260507185053 71 36 7.0 13.0 0.00 0.00 0.00 71 1015.0
20260507184523 70 23 8.0 13.0 0.00 0.00 0.00 70 1015.2
20260507184134 70 65 7.0 12.0 0.00 0.00 0.00 72 1015.2
20260507183619 70 25 6.0 13.0 0.00 0.00 0.00 73 1015.2
20260507183044 69 67 8.0 13.0 0.00 0.00 0.00 73 1015.2
20260507182552 68 30 6.0 14.0 0.00 0.00 0.00 74 1015.5
20260507181617 67 26 7.0 14.0 0.00 0.00 0.00 75 1016.2
20260507181059 67 65 7.0 14.0 0.00 0.00 0.00 76 1016.0
20260507180057 66 5 6.0 11.0 0.00 0.00 0.00 77 1016.4
20260507175607 65 316 5.0 10.0 0.00 0.00 0.00 77 1016.9
20260507174608 65 350 3.0 10.0 0.00 0.00 0.00 78 1016.8
20260507174057 64 346 5.0 13.0 0.00 0.00 0.00 77 1016.7
20260507173057 65 351 5.0 9.0 0.00 0.00 0.00 78 1016.4
20260507172604 64 19 5.0 9.0 0.00 0.00 0.00 79 1016.3
20260507172111 64 22 4.0 9.0 0.00 0.00 0.00 78 1016.5
20260507171539 64 39 5.0 10.0 0.00 0.00 0.00 78 1016.5
20260507171043 64 331 6.0 10.0 0.00 0.00 0.00 78 1016.4
20260507170110 63 29 4.0 12.0 0.00 0.00 0.00 80 1016.7
20260507165613 63 31 5.0 12.0 0.00 0.00 0.00 80 1016.7
20260507165122 63 315 7.0 12.0 0.00 0.00 0.00 80 1016.8
20260507164540 62 355 8.0 12.0 0.00 0.00 0.00 80 1016.9
20260507164034 62 355 7.0 11.0 0.00 0.00 0.00 81 1016.9
20260507163056 62 355 6.0 12.0 0.00 0.00 0.00 82 1016.9
20260507162558 62 360 8.0 12.0 0.00 0.00 0.00 81 1016.9
20260507161605 62 40 4.0 11.0 0.00 0.00 0.00 82 1016.9
20260507161108 62 329 7.0 14.0 0.00 0.00 0.00 81 1016.9
20260507160620 62 355 8.0 14.0 0.00 0.00 0.00 81 1016.8
20260507160040 63 339 9.0 14.0 0.00 0.00 0.00 81 1016.7
20260507155550 63 342 6.0 15.0 0.00 0.00 0.00 82 1016.5
20260507154615 62 355 10.0 15.0 0.00 0.00 0.00 82 1016.0
20260507154024 62 34 8.0 16.0 0.00 0.00 0.00 83 1015.9
20260507153528 62 355 10.0 16.0 0.00 0.00 0.00 83 1015.8
20260507153141 62 350 8.0 13.0 0.00 0.00 0.00 83 1016.0
20260507152523 61 360 8.0 14.0 0.00 0.00 0.00 84 1016.0
20260507151553 61 42 7.0 14.0 0.00 0.00 0.00 84 1015.8
20260507151057 61 5 8.0 14.0 0.00 0.00 0.00 85 1015.8
20260507150608 60 21 7.0 14.0 0.00 0.00 0.00 85 1016.0
20260507150039 60 49 9.0 14.0 0.00 0.00 0.00 85 1015.9
20260507145541 60 38 6.0 12.0 0.00 0.00 0.00 85 1016.1
20260507145051 60 5 9.0 12.0 0.00 0.00 0.00 85 1016.4
20260507144535 60 36 7.0 11.0 0.00 0.00 0.00 85 1016.6
20260507144044 60 37 5.0 13.0 0.00 0.00 0.00 86 1016.6
20260507143044 60 14 7.0 13.0 0.00 0.00 0.00 86 1016.9
20260507142554 60 44 5.0 11.0 0.00 0.00 0.00 86 1016.7
20260507142057 60 15 7.0 14.0 0.00 0.00 0.00 86 1016.6
20260507141525 60 20 7.0 14.0 0.00 0.00 0.00 86 1016.5
20260507141029 60 18 5.0 16.0 0.00 0.00 0.00 86 1016.5
20260507140636 60 20 8.0 16.0 0.00 0.00 0.00 86 1016.4
20260507140046 60 13 7.0 14.0 0.00 0.00 0.00 86 1016.5
20260507135547 60 36 7.0 14.0 0.00 0.00 0.00 86 1016.4
20260507134607 60 30 9.0 16.0 0.00 0.00 0.00 86 1016.4
20260507134117 60 18 7.0 16.0 0.00 0.00 0.00 86 1016.4
20260507133617 60 12 7.0 15.0 0.00 0.00 0.00 86 1016.3
20260507133026 60 16 8.0 15.0 0.00 0.00 0.00 86 1016.2
20260507132537 60 14 8.0 13.0 0.00 0.00 0.00 86 1016.4
20260507131559 60 28 5.0 13.0 0.00 0.00 0.00 86 1016.4
20260507131114 61 22 8.0 15.0 0.00 0.00 0.00 86 1016.4
20260507130611 61 18 8.0 15.0 0.00 0.00 0.00 86 1016.3
20260507130036 61 348 8.0 12.0 0.00 0.00 0.00 86 1016.3
20260507125540 61 27 7.0 11.0 0.00 0.00 0.00 86 1016.0
20260507124608 61 337 6.0 15.0 0.00 0.00 0.00 86 1015.8
20260507124111 61 26 6.0 15.0 0.00 0.00 0.00 86 1015.8
20260507123109 61 15 7.0 12.0 0.00 0.00 0.00 87 1015.8
20260507122618 61 27 7.0 13.0 0.00 0.00 0.00 87 1015.7
20260507122119 61 15 10.0 17.0 0.00 0.00 0.00 87 1015.7
20260507121549 61 334 11.0 17.0 0.00 0.00 0.00 88 1015.6
20260507121036 61 355 10.0 16.0 0.00 0.00 0.00 88 1015.5
20260507120640 61 338 11.0 15.0 0.00 0.00 0.00 88 1015.5
20260507120047 61 355 7.0 14.0 0.00 0.00 0.00 88 1015.3
20260507115529 61 355 7.0 13.0 0.00 0.00 0.00 88 1015.3
20260507114559 61 355 7.0 13.0 0.00 0.00 0.00 88 1014.9
20260507114102 61 333 9.0 13.0 0.00 0.00 0.00 88 1014.8
20260507113108 62 343 7.0 13.0 0.00 0.00 0.00 88 1014.8
20260507112610 62 5 7.0 12.0 0.00 0.00 0.00 88 1014.7
20260507111614 62 9 6.0 12.0 0.00 0.00 0.00 88 1014.6
20260507111103 62 346 5.0 11.0 0.00 0.00 0.00 88 1014.7
20260507110602 62 355 7.0 11.0 0.00 0.00 0.00 88 1014.6
20260507110032 62 22 3.0 11.0 0.00 0.00 0.00 88 1014.7
20260507105541 62 5 5.0 12.0 0.00 0.00 0.00 88 1015.0
20260507104539 62 315 5.0 12.0 0.00 0.00 0.00 88 1015.0
20260507104041 62 355 5.0 12.0 0.00 0.00 0.00 88 1014.3
20260507103041 62 340 7.0 13.0 0.00 0.00 0.00 88 1014.2
20260507102555 62 5 7.0 13.0 0.00 0.00 0.00 88 1013.7
20260507101553 62 9 6.0 12.0 0.00 0.00 0.00 88 1014.1
20260507101103 62 333 6.0 10.0 0.00 0.00 0.00 88 1014.2
20260507100609 62 350 8.0 13.0 0.00 0.00 0.00 88 1013.9
20260507100034 62 344 6.0 13.0 0.00 0.00 0.00 88 1013.8
20260507095538 62 350 7.0 11.0 0.00 0.00 0.00 88 1013.6
20260507094605 62 335 4.0 12.0 0.00 0.00 0.00 88 1013.5
20260507094108 62 360 5.0 12.0 0.00 0.00 0.00 88 1013.4
20260507093619 62 26 8.0 12.0 0.00 0.00 0.00 87 1013.7
20260507093042 62 360 5.0 11.0 0.00 0.00 0.00 87 1013.7
20260507092551 62 337 7.0 11.0 0.00 0.00 0.00 87 1013.8
20260507091612 62 29 4.0 8.0 0.00 0.00 0.00 87 1013.6
20260507091101 62 15 3.0 7.0 0.00 0.00 0.00 87 1013.3
20260507090100 62 14 3.0 8.0 0.00 0.00 0.00 87 1013.3
20260507085613 62 43 2.0 10.0 0.00 0.00 0.00 87 1013.0
20260507085055 62 20 4.0 9.0 0.00 0.00 0.00 87 1013.1
20260507084524 62 31 4.0 10.0 0.00 0.00 0.00 87 1012.8
20260507084027 62 59 5.0 10.0 0.00 0.00 0.00 87 1012.6
20260507083055 62 24 5.0 10.0 0.00 0.00 0.00 87 1013.0
20260507082558 62 60 5.0 9.0 0.00 0.00 0.00 86 1012.8
20260507081619 62 25 6.0 10.0 0.00 0.00 0.00 86 1013.3
20260507081129 62 30 6.0 10.0 0.00 0.00 0.00 86 1013.4
20260507080612 62 28 5.0 11.0 0.00 0.00 0.00 86 1013.6
20260507080040 62 27 5.0 11.0 0.00 0.00 0.00 86 1013.7
20260507075556 62 30 5.0 10.0 0.00 0.00 0.00 86 1013.2
20260507074614 62 26 5.0 12.0 0.00 0.00 0.00 86 1013.5
20260507074106 62 26 6.0 13.0 0.00 0.00 0.00 86 1013.1
20260507073105 62 33 6.0 12.0 0.00 0.00 0.00 86 1013.4
20260507072608 62 54 4.0 9.0 0.00 0.00 0.00 85 1013.4
20260507072054 62 69 4.0 10.0 0.00 0.00 0.00 85 1013.6
20260507071524 62 18 6.0 10.0 0.00 0.00 0.00 85 1013.9
20260507071107 62 32 4.0 10.0 0.00 0.00 0.00 85 1013.4
20260507070618 62 71 5.0 12.0 0.00 0.00 0.00 85 1013.7
20260507070035 62 89 6.0 12.0 0.00 0.00 0.00 85 1013.4
20260507065528 62 49 4.0 13.0 0.00 0.00 0.00 85 1013.8
20260507065037 62 32 7.0 13.0 0.00 0.00 0.00 85 1013.7
20260507064535 62 53 5.0 13.0 0.00 0.00 0.00 85 1013.5
20260507064045 63 324 8.0 13.0 0.00 0.00 0.00 85 1013.2
20260507063526 63 34 5.0 13.0 0.00 0.00 0.00 85 1013.7
20260507063045 63 36 6.0 13.0 0.00 0.00 0.00 85 1013.7
20260507062533 63 42 4.0 11.0 0.00 0.00 0.00 85 1014.1
20260507062043 63 360 6.0 11.0 0.00 0.00 0.00 85 1014.1
20260507061534 63 35 4.0 10.0 0.00 0.00 0.00 85 1013.9
20260507061042 63 26 5.0 12.0 0.00 0.00 0.00 85 1014.1
20260507060531 63 355 7.0 13.0 0.00 0.00 0.00 85 1013.9
20260507060024 63 24 8.0 13.0 0.00 0.00 0.00 85 1014.1
20260507055533 63 26 5.0 12.0 0.00 0.00 0.00 84 1013.9
20260507055042 63 360 7.0 16.0 0.00 0.00 0.00 84 1013.9
20260507054535 63 360 10.0 16.0 0.00 0.00 0.00 84 1013.9
20260507054023 63 15 7.0 11.0 0.00 0.00 0.00 84 1013.9
20260507053552 63 5 6.0 15.0 0.00 0.00 0.00 84 1013.5
20260507053022 63 40 9.0 15.0 0.00 0.00 0.00 84 1012.8
20260507052539 63 355 6.0 13.0 0.00 0.00 0.00 84 1013.8
20260507052048 63 339 7.0 12.0 0.00 0.00 0.00 84 1013.6
20260507051539 63 360 6.0 12.0 0.00 0.00 0.00 84 1013.3
20260507051028 63 349 5.0 12.0 0.00 0.00 0.00 83 1013.6
20260507050558 63 18 6.0 13.0 0.00 0.00 0.00 83 1013.7
20260507050057 63 349 7.0 15.0 0.00 0.00 0.00 83 1014.0
20260507045558 63 46 7.0 15.0 0.00 0.00 0.00 83 1013.6
20260507045108 63 10 5.0 13.0 0.00 0.00 0.00 83 1013.3
20260507044026 63 342 7.0 12.0 0.00 0.00 0.00 83 1013.4
20260507043634 63 15 6.0 14.0 0.00 0.00 0.00 83 1013.5
20260507043038 63 360 6.0 11.0 0.00 0.00 0.00 83 1013.4
20260507042548 63 24 6.0 14.0 0.00 0.00 0.00 83 1013.5
20260507041609 64 341 9.0 13.0 0.00 0.00 0.00 83 1013.4
20260507041058 64 5 7.0 14.0 0.00 0.00 0.00 83 1013.4
20260507040058 64 321 7.0 15.0 0.00 0.00 0.00 83 1013.4
20260507035541 64 32 6.0 12.0 0.00 0.00 0.00 83 1013.1
20260507034602 64 5 8.0 15.0 0.00 0.00 0.00 83 1013.3
20260507034032 64 24 8.0 15.0 0.00 0.00 0.00 83 1013.2
20260507033635 64 345 7.0 13.0 0.00 0.00 0.00 83 1013.1
20260507033044 64 5 7.0 15.0 0.00 0.00 0.00 83 1013.0
20260507032554 64 360 10.0 15.0 0.00 0.00 0.00 83 1013.0
20260507031615 64 347 8.0 15.0 0.00 0.00 0.00 83 1013.1
20260507031057 64 28 9.0 15.0 0.00 0.00 0.00 83 1012.7
20260507025605 64 313 9.0 16.0 0.00 0.00 0.00 83 1012.8
20260507025115 64 349 10.0 16.0 0.00 0.00 0.00 83 1012.7
20260507024534 64 306 8.0 16.0 0.00 0.00 0.00 83 1013.0
20260507024046 64 355 6.0 16.0 0.00 0.00 0.00 83 1012.3
20260507023553 64 343 10.0 14.0 0.00 0.00 0.00 83 1012.2
20260507023117 64 323 9.0 15.0 0.00 0.00 0.00 83 1012.1
20260507022531 64 340 8.0 15.0 0.00 0.00 0.00 83 1012.2
20260507022135 64 360 8.0 15.0 0.00 0.00 0.00 83 1012.0
20260507021539 64 340 11.0 15.0 0.00 0.00 0.00 83 1011.9
20260507021043 64 360 9.0 15.0 0.00 0.00 0.00 83 1012.0
20260507020112 64 346 7.0 14.0 0.00 0.00 0.00 83 1011.7
20260507015611 64 15 10.0 15.0 0.00 0.00 0.00 83 1011.7
20260507014610 65 338 11.0 15.0 0.00 0.00 0.00 83 1011.5
20260507014120 65 309 8.0 15.0 0.00 0.00 0.00 82 1011.6
20260507013607 65 360 5.0 12.0 0.00 0.00 0.00 82 1011.3
20260507013032 65 333 8.0 13.0 0.00 0.00 0.00 82 1011.4
20260507012541 65 322 7.0 13.0 0.00 0.00 0.00 82 1011.3
20260507011602 65 340 8.0 13.0 0.00 0.00 0.00 82 1010.9
20260507011112 65 355 6.0 13.0 0.00 0.00 0.00 82 1011.0
20260507010113 65 316 10.0 15.0 0.00 0.00 0.00 82 1010.7
20260507005556 65 323 9.0 13.0 0.00 0.00 0.00 82 1010.5
20260507004618 66 327 10.0 15.0 0.00 0.00 0.00 81 1010.5
20260507004032 66 330 6.0 15.0 0.00 0.00 0.00 81 1010.7
20260507003054 66 327 10.0 17.0 0.00 0.00 0.00 80 1010.3
20260507002543 67 325 9.0 16.0 0.00 0.00 0.00 80 1010.3
20260507001603 67 336 9.0 18.0 0.00 0.00 0.00 80 1010.2
20260507001113 67 350 11.0 18.0 0.00 0.00 0.00 80 1010.2
20260507000618 67 360 8.0 14.0 0.00 0.00 0.00 79 1010.2
20260507000045 68 355 8.0 15.0 0.00 0.00 0.00 79 1010.0
20260506235028 68 348 8.0 15.0 0.00 0.00 0.00 79 1010.1
20260506234033 68 5 12.0 18.0 0.00 0.00 0.00 78 1009.9
20260506233051 68 338 8.0 17.0 0.00 0.00 0.00 78 1009.8
20260506232602 68 340 9.0 17.0 0.00 0.00 0.00 78 1009.7
20260506232105 69 333 10.0 17.0 0.00 0.00 0.00 78 1009.6
20260506231531 69 345 10.0 17.0 0.00 0.00 0.00 78 1009.6
20260506231038 69 342 10.0 16.0 0.00 0.00 0.00 78 1009.5
20260506230105 69 346 10.0 15.0 0.00 0.00 0.00 78 1009.5
20260506225608 69 326 10.0 15.0 0.00 0.00 0.00 77 1009.6
20260506224616 69 329 11.0 19.0 0.00 0.00 0.00 78 1009.6
20260506224117 69 360 12.0 19.0 0.00 0.00 0.00 78 1009.6
20260506223606 69 355 10.0 17.0 0.00 0.00 0.00 78 1009.6
20260506223025 69 331 10.0 17.0 0.00 0.00 0.00 78 1009.5
20260506222535 69 360 12.0 17.0 0.00 0.00 0.00 79 1009.4
20260506221536 69 355 12.0 21.0 0.00 0.00 0.00 78 1009.6
20260506221050 69 338 13.0 21.0 0.00 0.00 0.00 78 1009.4
20260506220111 71 321 10.0 16.0 0.00 0.00 0.00 79 1009.5
20260506215554 71 330 11.0 19.0 0.00 0.00 0.00 78 1009.4
20260506214621 73 347 12.0 18.0 0.00 0.00 0.00 79 1009.2
20260506214103 74 317 10.0 16.0 0.00 0.00 0.00 80 1009.1
20260506213614 75 326 10.0 19.0 0.00 0.00 0.00 79 1009.1
20260506213033 76 346 12.0 19.0 0.00 0.00 0.00 79 1009.0
20260506212550 77 342 9.0 17.0 0.00 0.00 0.00 81 1008.8
20260506211550 78 9 10.0 15.0 0.00 0.00 0.00 80 1008.8
20260506211033 79 321 10.0 15.0 0.00 0.00 0.00 79 1008.8
20260506205611 80 331 5.0 11.0 0.00 0.00 0.00 80 1008.9
20260506205118 80 343 4.0 10.0 0.00 0.00 0.00 81 1008.7
20260506204535 80 355 7.0 11.0 0.00 0.00 0.00 80 1008.8
20260506204026 80 300 8.0 11.0 0.00 0.00 0.00 80 1008.8
20260506203637 80 335 5.0 8.0 0.00 0.00 0.00 79 1008.8
20260506203041 80 338 5.0 12.0 0.00 0.00 0.00 81 1008.7
20260506202551 80 341 8.0 12.0 0.00 0.00 0.00 80 1008.8
20260506201551 80 17 5.0 9.0 0.00 0.00 0.00 80 1008.7
20260506201101 80 320 4.0 9.0 0.00 0.00 0.00 80 1008.7
20260506200100 79 28 3.0 7.0 0.00 0.00 0.00 81 1008.8
20260506195547 79 58 3.0 7.0 0.00 0.00 0.00 82 1008.9
20260506194547 79 34 4.0 7.0 0.00 0.00 0.00 81 1009.1
20260506194030 78 106 3.0 8.0 0.00 0.00 0.00 82 1009.1
20260506193055 77 28 5.0 10.0 0.00 0.00 0.00 82 1009.1
20260506192702 77 18 7.0 10.0 0.00 0.00 0.00 82 1008.9
20260506192118 76 64 2.0 6.0 0.00 0.00 0.00 83 1008.8